Oscoda, MI

9:51 PM EDT on March 26, 2017 (GMT -0400)
Oscoda-Wurtsmith

Weather History for KOSC - April, 2013

Change the Weather History Date:

Thursday, April 11, 2013

  Actual Average Record
Temperature  
Mean Temperature 34 °F -  
Max Temperature 36 °F 48 °F 69 °F (2006)
Min Temperature 31 °F 30 °F 21 °F (1998)
Degree Days  
Heating Degree Days 32    
Moisture  
Dew Point 27 °F    
Average Humidity 80    
Maximum Humidity 95    
Minimum Humidity 69    
Precipitation  
Precipitation 0.38 in - - ()
Sea Level Pressure  
Sea Level Pressure 30.02 in    
Wind  
Wind Speed 17 mph (ENE)    
Max Wind Speed 28 mph    
Max Gust Speed 37 mph    
Visibility 8 miles    
Events Snow    
Averages and records for this station are not official NWS values.
T = Trace of Precipitation, MM = Missing Value Source: NWS Daily Summary

Daily Weather History Graph

Daily Weather History Graph

Search for Another Location

Airport or City:

Trip Planner

Search our weather history database for the weather conditions in past years. The results will help you decide how hot, cold, wet, or windy it might be!

Date:

Astronomy

Apr. 11, 2013 Rise Set
Actual Time 6:56 AM EDT 8:13 PM EDT
Civil Twilight 6:26 AM EDT 8:43 PM EDT
Nautical Twilight 5:50 AM EDT 9:19 PM EDT
Astronomical Twilight 5:11 AM EDT 9:58 PM EDT
Moon 7:23 AM EDT (4/11) 9:51 PM EDT (4/11)
Length of Visible Light 14h 17m
Length of Day
13h 17m
New Moon, 2% of the Moon is Illuminated
Apr 11
New Moon
Apr 18
First Quarter
Apr 25
Full
May 2
Last Quarter
May 9
New

Hourly Weather History & Observations

Time (EDT) Temp. Windchill Dew Point Humidity Pressure Visibility Wind Dir Wind Speed Gust Speed Precip Events Conditions
12:14 AM 36.5 °F 31.0 °F 30.2 °F 78% 30.08 in 10.0 mi North 6.9 mph - N/A   Overcast
12:34 AM 36.0 °F 30.3 °F 30.0 °F 79% 30.07 in 10.0 mi NNE 6.9 mph - N/A   Overcast
12:54 AM 36.1 °F 29.3 °F 30.2 °F 79% 30.09 in 10.0 mi North 9.2 mph - N/A   Overcast
1:14 AM 35.8 °F 29.4 °F 30.0 °F 80% 30.09 in 10.0 mi NNE 8.1 mph - N/A   Overcast
1:34 AM 35.8 °F 28.8 °F 29.8 °F 79% 30.09 in 10.0 mi NNE 9.2 mph - N/A   Overcast
1:54 AM 36.1 °F 27.7 °F 28.9 °F 75% 30.08 in 10.0 mi NNE 12.7 mph - N/A   Mostly Cloudy
2:14 AM 35.6 °F 26.2 °F 28.9 °F 77% 30.05 in 10.0 mi NNE 15.0 mph - N/A   Scattered Clouds
2:34 AM 35.6 °F 26.2 °F 29.8 °F 80% 30.03 in 10.0 mi NE 15.0 mph - N/A   Clear
2:54 AM 35.6 °F 26.2 °F 30.2 °F 81% 30.03 in 10.0 mi NNE 15.0 mph - N/A   Clear
3:14 AM 35.8 °F 26.1 °F 30.0 °F 80% 30.03 in 10.0 mi NE 16.1 mph 21.9 mph N/A   Clear
3:34 AM 36.0 °F 26.0 °F 28.9 °F 76% 30.04 in 10.0 mi NE 17.3 mph 23.0 mph N/A   Clear
3:54 AM 35.8 °F 25.1 °F 28.2 °F 74% 30.05 in 10.0 mi ENE 19.6 mph 24.2 mph N/A   Clear
4:14 AM 35.6 °F 24.8 °F 27.0 °F 71% 30.04 in 10.0 mi ENE 19.6 mph 25.3 mph N/A   Clear
4:34 AM 35.2 °F 23.8 °F 26.1 °F 69% 30.05 in 10.0 mi ENE 21.9 mph 29.9 mph N/A   Clear
4:54 AM 34.7 °F 23.1 °F 27.0 °F 73% 30.06 in 10.0 mi ENE 21.9 mph 27.6 mph N/A   Clear
5:14 AM 34.3 °F 23.2 °F 26.8 °F 74% 30.05 in 10.0 mi NE 19.6 mph 26.5 mph N/A   Clear
5:34 AM 34.0 °F 22.7 °F 26.8 °F 75% 30.06 in 10.0 mi NE 19.6 mph 26.5 mph N/A   Clear
5:54 AM 33.8 °F 22.8 °F 26.6 °F 75% 30.08 in 10.0 mi NE 18.4 mph 26.5 mph N/A   Mostly Cloudy
6:14 AM 33.4 °F 22.0 °F 26.6 °F 76% 30.08 in 10.0 mi NE 19.6 mph 23.0 mph N/A   Overcast
6:34 AM 33.3 °F 22.5 °F 26.4 °F 76% 30.09 in 10.0 mi NE 17.3 mph 23.0 mph N/A   Overcast
6:54 AM 33.1 °F 22.2 °F 26.2 °F 76% 30.09 in 10.0 mi NE 17.3 mph 26.5 mph N/A   Overcast
7:14 AM 32.9 °F 20.7 °F 26.2 °F 76% 30.09 in 10.0 mi ENE 21.9 mph 27.6 mph N/A   Overcast
7:34 AM 32.9 °F 21.0 °F 25.9 °F 75% 30.07 in 10.0 mi NE 20.7 mph 29.9 mph N/A   Overcast
7:54 AM 32.5 °F 20.2 °F 25.9 °F 76% 30.03 in 10.0 mi ENE 21.9 mph 29.9 mph N/A   Overcast
8:14 AM 32.9 °F 19.3 °F 26.2 °F 76% 30.02 in 10.0 mi ENE 27.6 mph 35.7 mph N/A   Scattered Clouds
8:34 AM 32.9 °F 20.4 °F 25.7 °F 75% 30.06 in 10.0 mi ENE 23.0 mph 36.8 mph N/A   Scattered Clouds
8:54 AM 32.9 °F 22.0 °F 25.7 °F 75% 30.09 in 10.0 mi ENE 17.3 mph 27.6 mph N/A   Mostly Cloudy
9:14 AM 32.5 °F 21.5 °F 25.5 °F 75% 30.08 in 10.0 mi ENE 17.3 mph 28.8 mph N/A   Overcast
9:34 AM 32.2 °F 20.7 °F 25.5 °F 76% 30.11 in 10.0 mi ENE 18.4 mph 24.2 mph N/A   Overcast
9:54 AM 32.5 °F 19.9 °F 25.5 °F 75% 30.08 in 10.0 mi ENE 23.0 mph 27.6 mph N/A   Overcast
10:14 AM 32.2 °F 20.0 °F 25.3 °F 76% 30.10 in 10.0 mi ENE 20.7 mph 25.3 mph N/A   Overcast
10:34 AM 32.5 °F 20.2 °F 25.3 °F 75% 30.08 in 10.0 mi ENE 21.9 mph 28.8 mph N/A   Overcast
10:54 AM 32.4 °F 20.9 °F 25.2 °F 75% 30.10 in 10.0 mi ENE 18.4 mph 27.6 mph N/A   Overcast
11:14 AM 32.7 °F 20.7 °F 25.3 °F 74% 30.07 in 10.0 mi ENE 20.7 mph 29.9 mph N/A   Overcast
11:33 AM 33.6 °F 21.1 °F 25.5 °F 72% 30.07 in 10.0 mi ENE 24.2 mph 29.9 mph N/A   Overcast
11:54 AM 33.8 °F 23.2 °F 25.3 °F 71% 30.08 in 10.0 mi ENE 17.3 mph 28.8 mph N/A   Overcast
12:14 PM 32.9 °F 19.8 °F 24.8 °F 72% 30.08 in 10.0 mi ENE 25.3 mph 29.9 mph N/A   Overcast
12:33 PM 32.9 °F 20.1 °F 25.2 °F 73% 30.06 in 10.0 mi ENE 24.2 mph 28.8 mph N/A   Overcast
12:54 PM 32.2 °F 19.4 °F 24.6 °F 74% 30.05 in 10.0 mi ENE 23.0 mph 31.1 mph N/A   Overcast
1:14 PM 32.0 °F 19.5 °F 24.3 °F 73% 30.05 in 10.0 mi ENE 21.9 mph - N/A   Overcast
1:34 PM 32.0 °F 20.5 °F 24.4 °F 74% 30.06 in 10.0 mi ENE 18.4 mph 26.5 mph N/A   Overcast
1:54 PM 32.0 °F 21.2 °F 26.2 °F 79% 30.05 in 7.0 mi ENE 16.1 mph 27.6 mph N/A   Overcast
2:14 PM 31.8 °F 19.0 °F 24.8 °F 75% 30.03 in 10.0 mi NE 23.0 mph 31.1 mph N/A   Overcast
2:34 PM 32.0 °F 19.8 °F 24.4 °F 74% 30.02 in 10.0 mi ENE 20.7 mph 32.2 mph N/A   Overcast
2:54 PM 31.8 °F 19.9 °F 26.4 °F 80% 30.03 in 7.0 mi ENE 19.6 mph 32.2 mph N/A   Overcast
3:14 PM 31.6 °F 17.6 °F 25.3 °F 78% 30.01 in 10.0 mi ENE 27.6 mph 34.5 mph N/A   Overcast
3:34 PM 31.6 °F 18.7 °F 26.1 °F 80% 30.01 in 7.0 mi ENE 23.0 mph 32.2 mph N/A   Overcast
3:54 PM 31.5 °F 18.8 °F 25.3 °F 78% 30.00 in 10.0 mi ENE 21.9 mph 33.4 mph N/A   Overcast
4:14 PM 31.6 °F 19.0 °F 25.3 °F 78% 29.99 in 10.0 mi ENE 21.9 mph 31.1 mph N/A   Overcast
4:34 PM 31.8 °F 20.2 °F 26.8 °F 82% 30.00 in 4.0 mi East 18.4 mph 32.2 mph N/A   Overcast
4:54 PM 31.6 °F 20.0 °F 27.3 °F 84% 29.98 in 3.0 mi ENE 18.4 mph 26.5 mph 0.01 in   Overcast
5:14 PM 31.6 °F 19.0 °F 27.3 °F 84% 29.98 in 4.0 mi ENE 21.9 mph 29.9 mph 0.01 in   Overcast
5:34 PM 31.5 °F 19.1 °F 27.3 °F 85% 29.97 in 10.0 mi ENE 20.7 mph 32.2 mph 0.01 in   Overcast
5:54 PM 31.5 °F 17.6 °F 27.1 °F 84% 29.97 in 10.0 mi ENE 26.5 mph 34.5 mph 0.01 in   Overcast
6:14 PM 31.6 °F 19.3 °F 27.7 °F 85% 29.97 in 5.0 mi ENE 20.7 mph 29.9 mph N/A   Overcast
6:34 PM 31.8 °F 19.6 °F 28.2 °F 87% 29.97 in 4.0 mi ENE 20.7 mph 31.1 mph N/A   Overcast
6:54 PM 32.0 °F 19.8 °F 28.4 °F 87% 29.97 in 4.0 mi ENE 20.7 mph 26.5 mph N/A   Overcast
7:14 PM 32.0 °F 19.5 °F 27.7 °F 84% 29.99 in 2.0 mi ENE 21.9 mph 29.9 mph N/A   Overcast
7:34 PM 32.0 °F 20.5 °F 29.1 °F 89% 29.96 in 1.5 mi ENE 18.4 mph 31.1 mph 0.01 in Snow Light Snow
7:54 PM 32.0 °F 19.8 °F 29.8 °F 92% 29.95 in 2.0 mi ENE 20.7 mph 29.9 mph 0.02 in Snow Light Snow
8:14 PM 32.0 °F 19.5 °F 30.2 °F 93% 29.93 in 2.0 mi ENE 21.9 mph 29.9 mph 0.03 in Snow Light Snow
8:34 PM 32.0 °F 19.8 °F 30.2 °F 93% 29.92 in 3.0 mi East 20.7 mph 32.2 mph 0.05 in Snow Light Snow
8:54 PM 32.0 °F 19.5 °F 30.2 °F 93% 29.92 in 3.0 mi ENE 21.9 mph 29.9 mph 0.08 in Snow Light Snow
9:14 PM 32.0 °F 18.9 °F 30.4 °F 94% 29.92 in 3.0 mi East 24.2 mph 31.1 mph 0.03 in Snow Light Snow
9:34 PM 32.0 °F 19.8 °F 30.0 °F 92% 29.91 in 3.0 mi ENE 20.7 mph 29.9 mph 0.07 in Snow Light Snow
9:54 PM 32.0 °F 20.1 °F 30.2 °F 93% 29.91 in 2.0 mi East 19.6 mph 32.2 mph 0.11 in Snow Light Snow
10:14 PM 32.0 °F 20.8 °F 30.2 °F 93% 29.89 in 2.5 mi ENE 17.3 mph 32.2 mph 0.03 in Snow Light Snow
10:34 PM 32.0 °F 20.8 °F 30.4 °F 94% 29.88 in 3.0 mi ENE 17.3 mph 27.6 mph 0.05 in Snow Light Snow
10:54 PM 32.0 °F 21.2 °F 30.6 °F 94% 29.85 in 3.0 mi ENE 16.1 mph 31.1 mph 0.07 in Snow Light Snow
11:14 PM 32.2 °F 20.4 °F 30.2 °F 92% 29.83 in 4.0 mi ENE 19.6 mph 32.2 mph 0.02 in Snow Light Snow
11:34 PM 32.2 °F 20.7 °F 30.9 °F 95% 29.82 in 3.0 mi ENE 18.4 mph 27.6 mph 0.05 in Snow Light Snow
11:54 PM 32.2 °F - 30.6 °F 94% 29.81 in 2.5 mi North - - 0.08 in Snow Light Snow